{"data":{"norad_id":52577,"intl_designator":"2022-051AT","name":"STARLINK-3836","alt_names":[],"object_type":"PAYLOAD","status":"ACTIVE","operator":null,"country":"US","launch_date":"2022-05-13","launch_site_code":"AFWTR","launch_vehicle":null,"mission":null,"orbit_class":"UNKNOWN","rcs_meters":null,"size_class":null,"mass_kg":null,"dimensions":null,"purposes":["comms"],"wikipedia_slug":null,"has_3d_model":false,"image_url":null,"decayed_at":null,"tle_current":{"epoch":"2026-05-25T00:55:20.643168Z","epoch_age_seconds":65694,"freshness":"FRESH","line1":"1 52577U 22051AT  26145.03843337 -.00000774  00000+0 -30523-4 0  9991","line2":"2 52577  53.2151 151.3780 0001637  69.1309 290.9858 15.08843255222902","mean_motion":15.08843255,"eccentricity":0.0001637,"inclination_deg":53.2151,"raan_deg":151.378,"arg_perigee_deg":69.1309,"mean_anomaly_deg":290.9858,"bstar":-3.0523e-5,"rev_number":22290,"period_min":95.437348792072,"perigee_km":538.60098435819,"apogee_km":540.86589514016,"semimajor_km":6917.8704397492,"source":"CELESTRAK","updated_at":"2026-05-25T13:38:17.192927Z"}}}